Hourly Weather Kanli

Today, 23 April, Friday

Time Temperature Precipitation Wind Pressure Humidity
00:00 +12°C° 0 mm 2 mps 693 mmHg 48%
01:00 +12°C° 0 mm 2 mps 692 mmHg 45%
02:00 +12°C° 0 mm 2 mps 692 mmHg 45%
03:00 +12°C° 0 mm 2 mps 692 mmHg 44%
04:00 +12°C° 0 mm 2 mps 692 mmHg 42%
05:00 +14°C° 0 mm 2 mps 693 mmHg 40%
06:00 +16°C° 0 mm 1 mps 693 mmHg 38%
07:00 +18°C° 0 mm 1 mps 694 mmHg 36%
08:00 +20°C° 0 mm 1 mps 694 mmHg 33%
09:00 +21°C° 0 mm 1 mps 694 mmHg 29%
10:00 +21°C° 0 mm 2 mps 694 mmHg 25%
11:00 +23°C° 0 mm 2 mps 694 mmHg 24%
12:00 +24°C° 0 mm 2 mps 693 mmHg 23%
13:00 +25°C° 0 mm 2 mps 693 mmHg 22%
14:00 +24°C° 0 mm 2 mps 693 mmHg 23%
15:00 +24°C° 0 mm 2 mps 693 mmHg 23%
16:00 +24°C° 0 mm 3 mps 692 mmHg 24%
17:00 +21°C° 0 mm 3 mps 692 mmHg 30%
18:00 +18°C° 0 mm 3 mps 692 mmHg 35%
19:00 +16°C° 0 mm 3 mps 692 mmHg 40%
20:00 +16°C° 0 mm 2 mps 691 mmHg 40%
21:00 +15°C° 0 mm 2 mps 691 mmHg 40%
22:00 +15°C° 0 mm 2 mps 691 mmHg 40%
23:00 +15°C° 0 mm 2 mps 691 mmHg 38%

Tomorrow, 24 April, Saturday

Time Temperature Precipitation Wind Pressure Humidity
00:00 +15°C° 0 mm 2 mps 691 mmHg 37%
01:00 +15°C° 0 mm 2 mps 690 mmHg 35%
02:00 +15°C° 0 mm 2 mps 690 mmHg 35%
03:00 +15°C° 0 mm 2 mps 690 mmHg 35%
04:00 +15°C° 0 mm 1 mps 690 mmHg 35%
05:00 +18°C° 0 mm 1 mps 691 mmHg 35%
06:00 +19°C° 0 mm 1 mps 692 mmHg 35%
07:00 +18°C° 0 mm 0 mps 692 mmHg 35%
08:00 +21°C° 0 mm 1 mps 692 mmHg 33%
09:00 +23°C° 0 mm 2 mps 693 mmHg 32%
10:00 +24°C° 0 mm 2 mps 693 mmHg 30%
11:00 +24°C° 0 mm 2 mps 693 mmHg 28%
12:00 +25°C° 0 mm 2 mps 693 mmHg 27%
13:00 +25°C° 0 mm 2 mps 693 mmHg 26%
14:00 +25°C° 0 mm 2 mps 693 mmHg 25%
15:00 +25°C° 0 mm 1 mps 693 mmHg 25%
16:00 +25°C° 0 mm 1 mps 693 mmHg 25%
17:00 +23°C° 0 mm 1 mps 692 mmHg 28%
18:00 +20°C° 0 mm 2 mps 692 mmHg 31%
19:00 +18°C° 0 mm 2 mps 692 mmHg 35%
20:00 +18°C° 0 mm 2 mps 692 mmHg 34%
21:00 +17°C° 0 mm 2 mps 692 mmHg 34%
22:00 +17°C° 0 mm 2 mps 692 mmHg 34%
23:00 +17°C° 0 mm 2 mps 692 mmHg 34%

Day after tomorrow, 25 April, Sunday

Time Temperature Precipitation Wind Pressure Humidity
00:00 +17°C° 0 mm 2 mps 692 mmHg 34%
01:00 +17°C° 0 mm 2 mps 691 mmHg 34%
02:00 +17°C° 0 mm 2 mps 691 mmHg 35%
03:00 +17°C° 0 mm 2 mps 691 mmHg 35%
04:00 +16°C° 0 mm 2 mps 691 mmHg 35%
05:00 +18°C° 0 mm 2 mps 691 mmHg 36%
06:00 +19°C° 0 mm 2 mps 692 mmHg 36%
07:00 +22°C° 0 mm 1 mps 692 mmHg 36%
08:00 +23°C° 0 mm 1 mps 692 mmHg 32%
09:00 +25°C° 0 mm 1 mps 693 mmHg 29%
10:00 +26°C° 0 mm 1 mps 693 mmHg 25%
11:00 +27°C° 0 mm 2 mps 693 mmHg 24%
12:00 +28°C° 0 mm 2 mps 693 mmHg 24%
13:00 +28°C° 0 mm 2 mps 692 mmHg 23%
14:00 +28°C° 0 mm 2 mps 692 mmHg 25%
15:00 +28°C° 0 mm 3 mps 692 mmHg 26%
16:00 +27°C° 0 mm 3 mps 692 mmHg 28%
17:00 +25°C° 0 mm 3 mps 692 mmHg 32%
18:00 +22°C° 0 mm 3 mps 691 mmHg 36%
19:00 +19°C° 0 mm 3 mps 691 mmHg 40%
20:00 +19°C° 0 mm 3 mps 691 mmHg 40%
21:00 +19°C° 0 mm 3 mps 691 mmHg 39%
22:00 +18°C° 0 mm 3 mps 691 mmHg 39%
23:00 +18°C° 0 mm 3 mps 690 mmHg 40%

26 April, Monday

Time Temperature Precipitation Wind Pressure Humidity
00:00 +18°C° 0 mm 3 mps 690 mmHg 41%
01:00 +18°C° 0 mm 3 mps 690 mmHg 42%
02:00 +18°C° 0 mm 3 mps 690 mmHg 41%
03:00 +18°C° 0 mm 3 mps 690 mmHg 41%
04:00 +18°C° 0 mm 3 mps 690 mmHg 40%
05:00 +19°C° 0 mm 3 mps 690 mmHg 41%
06:00 +20°C° 0 mm 2 mps 690 mmHg 41%
07:00 +21°C° 0 mm 2 mps 690 mmHg 42%
08:00 +24°C° 0 mm 2 mps 691 mmHg 38%
09:00 +26°C° 0 mm 2 mps 691 mmHg 33%
10:00 +27°C° 0 mm 2 mps 691 mmHg 29%
11:00 +28°C° 0 mm 2 mps 691 mmHg 28%
12:00 +29°C° 0 mm 2 mps 691 mmHg 27%
13:00 +29°C° 0 mm 2 mps 690 mmHg 25%
14:00 +29°C° 0 mm 3 mps 690 mmHg 27%
15:00 +28°C° 0 mm 3 mps 690 mmHg 29%
16:00 +28°C° 0 mm 3 mps 690 mmHg 30%
17:00 +26°C° 0 mm 3 mps 689 mmHg 36%
18:00 +24°C° 0 mm 3 mps 689 mmHg 42%
19:00 +21°C° 0 mm 3 mps 689 mmHg 47%
20:00 +20°C° 0 mm 3 mps 689 mmHg 46%
21:00 +20°C° 0 mm 3 mps 688 mmHg 44%
22:00 +20°C° 0 mm 2 mps 688 mmHg 43%
23:00 +20°C° 0 mm 2 mps 688 mmHg 42%

27 April, Tuesday

Time Temperature Precipitation Wind Pressure Humidity
00:00 +20°C° 0 mm 2 mps 688 mmHg 41%
01:00 +20°C° 0 mm 2 mps 688 mmHg 41%
02:00 +20°C° 0 mm 2 mps 688 mmHg 40%
03:00 +20°C° 0 mm 2 mps 688 mmHg 40%
04:00 +20°C° 0 mm 2 mps 687 mmHg 39%
05:00 +21°C° 0 mm 2 mps 688 mmHg 37%
06:00 +24°C° 0 mm 1 mps 688 mmHg 35%
07:00 +26°C° 0 mm 1 mps 689 mmHg 33%
08:00 +27°C° 0 mm 1 mps 689 mmHg 29%
09:00 +29°C° 0 mm 1 mps 689 mmHg 25%
10:00 +30°C° 0 mm 2 mps 689 mmHg 21%
11:00 +30°C° 0 mm 2 mps 689 mmHg 21%
12:00 +31°C° 0 mm 2 mps 689 mmHg 20%
13:00 +33°C° 0 mm 3 mps 689 mmHg 19%
14:00 +31°C° 0 mm 3 mps 689 mmHg 20%
15:00 +31°C° 0 mm 2 mps 689 mmHg 20%
16:00 +31°C° 0 mm 2 mps 688 mmHg 21%
17:00 +29°C° 0 mm 2 mps 688 mmHg 24%
18:00 +27°C° 0 mm 1 mps 688 mmHg 27%
19:00 +25°C° 0 mm 1 mps 688 mmHg 31%
20:00 +24°C° 0 mm 1 mps 688 mmHg 32%
21:00 +24°C° 0 mm 2 mps 688 mmHg 32%
22:00 +23°C° 0 mm 2 mps 688 mmHg 33%
23:00 +23°C° 0 mm 2 mps 688 mmHg 33%

28 April, Wednesday

Time Temperature Precipitation Wind Pressure Humidity
00:00 +23°C° 0 mm 2 mps 688 mmHg 33%
01:00 +23°C° 0 mm 2 mps 687 mmHg 33%
02:00 +21°C° 0 mm 2 mps 688 mmHg 32%
03:00 +21°C° 0 mm 3 mps 688 mmHg 32%
04:00 +21°C° 0 mm 3 mps 688 mmHg 31%
05:00 +24°C° 0 mm 2 mps 688 mmHg 31%
06:00 +25°C° 0 mm 2 mps 689 mmHg 31%
07:00 +27°C° 0 mm 1 mps 689 mmHg 31%
08:00 +28°C° 0 mm 1 mps 690 mmHg 26%
09:00 +30°C° 0 mm 1 mps 690 mmHg 22%
10:00 +31°C° 0 mm 2 mps 690 mmHg 17%
11:00 +32°C° 0 mm 2 mps 690 mmHg 17%
12:00 +32°C° 0 mm 2 mps 690 mmHg 17%
13:00 +34°C° 0 mm 3 mps 689 mmHg 17%
14:00 +34°C° 0 mm 3 mps 689 mmHg 17%
15:00 +32°C° 0 mm 2 mps 689 mmHg 18%
16:00 +32°C° 0 mm 2 mps 689 mmHg 18%
17:00 +30°C° 0 mm 2 mps 689 mmHg 21%
18:00 +28°C° 0 mm 1 mps 689 mmHg 24%
19:00 +26°C° 0 mm 1 mps 688 mmHg 27%
20:00 +25°C° 0 mm 2 mps 688 mmHg 27%
21:00 +25°C° 0 mm 2 mps 688 mmHg 27%
22:00 +24°C° 0 mm 2 mps 688 mmHg 28%
23:00 +24°C° 0 mm 2 mps 688 mmHg 28%
Show more